| time (UTC) | temp F | wind direction | speed knots | gust knots | rain 1hr in | rain 24hr in | rain mn in | humidity % | barometer mb |
| 20260510063907 | 0 | 0.0 | 0.0 | 0.00 | 0.00 | 0.00 | 1017.9 | ||
| 20260510063403 | 0 | 0.0 | 0.0 | 0.00 | 0.00 | 0.00 | 1018.1 | ||
| 20260510062901 | 0 | 0.0 | 0.0 | 0.00 | 0.00 | 0.00 | 1017.8 | ||
| 20260510062355 | 0 | 0.0 | 0.0 | 0.00 | 0.00 | 0.00 | 1018.1 | ||
| 20260510061851 | 0 | 0.0 | 0.0 | 0.00 | 0.00 | 0.00 | 1018.0 | ||
| 20260510061348 | 68 | 255 | 2.6 | 5.2 | 0.00 | 0.00 | 0.00 | 73 | 1018.0 |
| 20260510060844 | 68 | 255 | 2.6 | 5.2 | 0.00 | 0.00 | 0.00 | 73 | 1018.1 |
| 20260510060342 | 68 | 255 | 2.6 | 5.2 | 0.00 | 0.00 | 0.00 | 73 | 1017.9 |
| 20260510055838 | 68 | 255 | 2.6 | 5.2 | 0.00 | 0.00 | 0.00 | 73 | 1017.8 |
| 20260510055337 | 68 | 255 | 2.6 | 5.2 | 0.00 | 0.00 | 0.00 | 73 | 1018.0 |
| 20260510054836 | 68 | 255 | 2.6 | 5.2 | 0.00 | 0.00 | 0.00 | 73 | 1017.9 |
| 20260510054332 | 68 | 255 | 2.6 | 5.2 | 0.00 | 0.00 | 0.00 | 73 | 1017.9 |
| 20260510053827 | 68 | 255 | 2.6 | 5.2 | 0.00 | 0.00 | 0.00 | 73 | 1018.0 |
| 20260510053323 | 68 | 255 | 2.6 | 5.2 | 0.00 | 0.00 | 0.00 | 73 | 1017.6 |
| 20260510052820 | 68 | 255 | 2.6 | 5.2 | 0.00 | 0.00 | 0.00 | 73 | 1017.7 |
| 20260510052315 | 68 | 255 | 2.6 | 5.2 | 0.00 | 0.00 | 0.00 | 73 | 1018.0 |
| 20260510051812 | 68 | 255 | 2.6 | 5.2 | 0.00 | 0.00 | 0.00 | 73 | 1017.7 |
| 20260510051309 | 69 | 227 | 8.7 | 8.7 | 0.00 | 0.00 | 0.00 | 74 | 1017.8 |
| 20260510050806 | 69 | 227 | 8.7 | 8.7 | 0.00 | 0.00 | 0.00 | 74 | 1017.9 |
| 20260510050302 | 69 | 204 | 6.1 | 6.1 | 0.00 | 0.00 | 0.00 | 74 | 1017.7 |
| 20260510045800 | 69 | 219 | 4.3 | 4.3 | 0.00 | 0.00 | 0.00 | 74 | 1017.6 |
| 20260510045256 | 69 | 219 | 4.3 | 4.3 | 0.00 | 0.00 | 0.00 | 74 | 1017.3 |
| 20260510044753 | 69 | 207 | 3.5 | 11.3 | 0.00 | 0.00 | 0.00 | 74 | 1017.5 |
| 20260510044250 | 69 | 207 | 3.5 | 11.3 | 0.00 | 0.00 | 0.00 | 74 | 1017.2 |
| 20260510043746 | 68 | 222 | 5.2 | 5.2 | 0.00 | 0.00 | 0.00 | 74 | 1017.4 |
| 20260510043243 | 69 | 199 | 5.2 | 11.3 | 0.00 | 0.00 | 0.00 | 74 | 1017.2 |
| 20260510042740 | 68 | 213 | 4.3 | 7.0 | 0.00 | 0.00 | 0.00 | 73 | 1017.4 |
| 20260510042236 | 68 | 213 | 4.3 | 7.0 | 0.00 | 0.00 | 0.00 | 73 | 1017.4 |
| 20260510041733 | 68 | 201 | 6.1 | 6.1 | 0.00 | 0.00 | 0.00 | 73 | 1017.4 |
| 20260510041230 | 68 | 215 | 3.5 | 6.1 | 0.00 | 0.00 | 0.00 | 74 | 1017.4 |
| 20260510040727 | 69 | 201 | 2.6 | 4.3 | 0.00 | 0.00 | 0.00 | 74 | 1017.5 |
| 20260510040224 | 69 | 201 | 2.6 | 4.3 | 0.00 | 0.00 | 0.00 | 74 | 1017.2 |
| 20260510035719 | 69 | 201 | 2.6 | 4.3 | 0.00 | 0.00 | 0.00 | 74 | 1017.3 |
| 20260510035215 | 69 | 201 | 2.6 | 4.3 | 0.00 | 0.00 | 0.00 | 74 | 1017.4 |
| 20260510034711 | 69 | 201 | 2.6 | 4.3 | 0.00 | 0.00 | 0.00 | 74 | 1017.4 |
| 20260510034210 | 69 | 201 | 2.6 | 4.3 | 0.00 | 0.00 | 0.00 | 74 | 1017.4 |
| 20260510033705 | 69 | 201 | 2.6 | 4.3 | 0.00 | 0.00 | 0.00 | 74 | 1017.3 |
| 20260510033203 | 69 | 201 | 2.6 | 4.3 | 0.00 | 0.00 | 0.00 | 74 | 1017.1 |
| 20260510032659 | 69 | 201 | 2.6 | 4.3 | 0.00 | 0.00 | 0.00 | 74 | 1017.2 |
| 20260510032155 | 69 | 201 | 2.6 | 4.3 | 0.00 | 0.00 | 0.00 | 74 | 1017.0 |
| 20260510031649 | 69 | 201 | 2.6 | 4.3 | 0.00 | 0.00 | 0.00 | 74 | 1017.3 |
| 20260510031146 | 69 | 201 | 2.6 | 4.3 | 0.00 | 0.00 | 0.00 | 74 | 1017.0 |
| 20260510030641 | 0 | 0.0 | 0.0 | 0.00 | 0.00 | 0.00 | 1017.0 | ||
| 20260510030139 | 0 | 0.0 | 0.0 | 0.00 | 0.00 | 0.00 | 1017.0 | ||
| 20260510025636 | 0 | 0.0 | 0.0 | 0.00 | 0.00 | 0.00 | 1016.9 | ||
| 20260510025133 | 0 | 0.0 | 0.0 | 0.00 | 0.00 | 0.00 | 1016.9 | ||
| 20260510024630 | 0 | 0.0 | 0.0 | 0.00 | 0.00 | 0.00 | 1016.4 | ||
| 20260510024126 | 0 | 0.0 | 0.0 | 0.00 | 0.00 | 0.00 | 1016.7 | ||
| 20260510023622 | 0 | 0.0 | 0.0 | 0.00 | 0.00 | 0.00 | 1016.5 | ||
| 20260510023120 | 0 | 0.0 | 0.0 | 0.00 | 0.00 | 0.00 | 1016.4 | ||
| 20260510022619 | 0 | 0.0 | 0.0 | 0.00 | 0.00 | 0.00 | 1016.3 | ||
| 20260510022114 | 0 | 0.0 | 0.0 | 0.00 | 0.00 | 0.00 | 1016.1 | ||
| 20260510021610 | 0 | 0.0 | 0.0 | 0.00 | 0.00 | 0.00 | 1016.2 | ||
| 20260510021108 | 0 | 0.0 | 0.0 | 0.00 | 0.00 | 0.00 | 1016.0 | ||
| 20260510020602 | 0 | 0.0 | 0.0 | 0.00 | 0.00 | 0.00 | 1015.8 | ||
| 20260510020058 | 0 | 0.0 | 0.0 | 0.00 | 0.00 | 0.00 | 1015.7 | ||
| 20260510015554 | 0 | 0.0 | 0.0 | 0.00 | 0.00 | 0.00 | 1015.7 | ||
| 20260510015050 | 0 | 0.0 | 0.0 | 0.00 | 0.00 | 0.00 | 1015.7 | ||
| 20260510014546 | 0 | 0.0 | 0.0 | 0.00 | 0.00 | 0.00 | 1015.5 | ||
| 20260510014043 | 0 | 0.0 | 0.0 | 0.00 | 0.00 | 0.00 | 1015.5 | ||
| 20260510013538 | 0 | 0.0 | 0.0 | 0.00 | 0.00 | 0.00 | 1015.3 | ||
| 20260510013034 | 0 | 0.0 | 0.0 | 0.00 | 0.00 | 0.00 | 1015.5 | ||
| 20260510012528 | 0 | 0.0 | 0.0 | 0.00 | 0.00 | 0.00 | 1015.3 | ||
| 20260510012025 | 0 | 0.0 | 0.0 | 0.00 | 0.00 | 0.00 | 1015.6 | ||
| 20260510011524 | 0 | 0.0 | 0.0 | 0.00 | 0.00 | 0.00 | 1015.3 | ||
| 20260510011020 | 0 | 0.0 | 0.0 | 0.00 | 0.00 | 0.00 | 1015.3 | ||
| 20260510010517 | 0 | 0.0 | 0.0 | 0.00 | 0.00 | 0.00 | 1015.4 | ||
| 20260510010014 | 0 | 0.0 | 0.0 | 0.00 | 0.00 | 0.00 | 1015.3 | ||
| 20260510005509 | 0 | 0.0 | 0.0 | 0.00 | 0.00 | 0.00 | 1015.0 | ||
| 20260510005008 | 0 | 0.0 | 0.0 | 0.00 | 0.00 | 0.00 | 1015.2 | ||
| 20260510004505 | 0 | 0.0 | 0.0 | 0.00 | 0.00 | 0.00 | 1015.3 | ||
| 20260510004003 | 0 | 0.0 | 0.0 | 0.00 | 0.00 | 0.00 | 1015.1 | ||
| 20260510003459 | 0 | 0.0 | 0.0 | 0.00 | 0.00 | 0.00 | 1014.9 | ||
| 20260510002955 | 0 | 0.0 | 0.0 | 0.00 | 0.00 | 0.00 | 1015.0 | ||
| 20260510002451 | 0 | 0.0 | 0.0 | 0.00 | 0.00 | 0.00 | 1014.9 | ||
| 20260510001947 | 81 | 140 | 4.3 | 4.3 | 0.00 | 0.00 | 0.00 | 75 | 1014.9 |
| 20260510001445 | 81 | 140 | 4.3 | 4.3 | 0.00 | 0.00 | 0.00 | 75 | 1014.9 |
| 20260510000943 | 81 | 140 | 4.3 | 4.3 | 0.00 | 0.00 | 0.00 | 75 | 1014.9 |
| 20260510000440 | 81 | 140 | 4.3 | 4.3 | 0.00 | 0.00 | 0.00 | 75 | 1014.7 |
| 20260509235935 | 81 | 140 | 4.3 | 4.3 | 0.00 | 0.00 | 0.00 | 75 | 1014.9 |
| 20260509235432 | 81 | 140 | 4.3 | 4.3 | 0.00 | 0.00 | 0.00 | 75 | 1014.6 |
| 20260509234928 | 81 | 140 | 4.3 | 4.3 | 0.00 | 0.00 | 0.00 | 75 | 1014.7 |
| 20260509234425 | 81 | 140 | 4.3 | 4.3 | 0.00 | 0.00 | 0.00 | 75 | 1014.6 |
| 20260509233923 | 81 | 140 | 4.3 | 4.3 | 0.00 | 0.00 | 0.00 | 75 | 1014.6 |
| 20260509233420 | 81 | 140 | 4.3 | 4.3 | 0.00 | 0.00 | 0.00 | 75 | 1014.6 |
| 20260509232916 | 81 | 140 | 4.3 | 4.3 | 0.00 | 0.00 | 0.00 | 75 | 1014.8 |
| 20260509232414 | 81 | 140 | 4.3 | 4.3 | 0.00 | 0.00 | 0.00 | 75 | 1014.7 |
| 20260509231909 | 80 | 246 | 6.1 | 7.0 | 0.00 | 0.00 | 0.00 | 75 | 1014.7 |
| 20260509231407 | 82 | 258 | 2.6 | 5.2 | 0.00 | 0.00 | 0.00 | 75 | 1014.8 |
| 20260509230905 | 81 | 221 | 7.8 | 7.8 | 0.00 | 0.00 | 0.00 | 75 | 1014.7 |
| 20260509230401 | 81 | 223 | 4.3 | 7.8 | 0.00 | 0.00 | 0.00 | 75 | 1014.7 |
| 20260509225857 | 81 | 251 | 7.8 | 9.6 | 0.00 | 0.00 | 0.00 | 75 | 1014.6 |
| 20260509225354 | 82 | 270 | 5.2 | 5.2 | 0.00 | 0.00 | 0.00 | 75 | 1014.8 |
| 20260509224849 | 82 | 220 | 6.1 | 8.7 | 0.00 | 0.00 | 0.00 | 75 | 1014.4 |
| 20260509224346 | 82 | 246 | 7.8 | 11.3 | 0.00 | 0.00 | 0.00 | 75 | 1014.4 |
| 20260509223843 | 83 | 260 | 6.1 | 7.8 | 0.00 | 0.00 | 0.00 | 75 | 1014.5 |
| 20260509223340 | 0 | 0.0 | 0.0 | 0.00 | 0.00 | 0.00 | 1014.5 | ||
| 20260509222837 | 0 | 0.0 | 0.0 | 0.00 | 0.00 | 0.00 | 1014.5 | ||
| 20260509222332 | 82 | 276 | 7.8 | 7.8 | 0.00 | 0.00 | 0.00 | 75 | 1014.2 |
| 20260509221827 | 82 | 276 | 7.8 | 7.8 | 0.00 | 0.00 | 0.00 | 75 | 1014.5 |
| 20260509221325 | 82 | 276 | 7.8 | 7.8 | 0.00 | 0.00 | 0.00 | 75 | 1014.1 |
| 20260509220825 | 82 | 276 | 7.8 | 7.8 | 0.00 | 0.00 | 0.00 | 75 | 1014.4 |
| 20260509220321 | 82 | 276 | 7.8 | 7.8 | 0.00 | 0.00 | 0.00 | 75 | 1014.4 |
| 20260509215817 | 82 | 276 | 7.8 | 7.8 | 0.00 | 0.00 | 0.00 | 75 | 1014.3 |
| 20260509215314 | 82 | 276 | 7.8 | 7.8 | 0.00 | 0.00 | 0.00 | 75 | 1014.3 |
| 20260509214811 | 82 | 276 | 7.8 | 7.8 | 0.00 | 0.00 | 0.00 | 75 | 1014.5 |
| 20260509214308 | 82 | 276 | 7.8 | 7.8 | 0.00 | 0.00 | 0.00 | 75 | 1014.4 |
| 20260509213805 | 82 | 276 | 7.8 | 7.8 | 0.00 | 0.00 | 0.00 | 75 | 1014.3 |
| 20260509213301 | 82 | 276 | 7.8 | 7.8 | 0.00 | 0.00 | 0.00 | 75 | 1014.2 |
| 20260509212758 | 82 | 276 | 7.8 | 7.8 | 0.00 | 0.00 | 0.00 | 75 | 1014.5 |
| 20260509212255 | 80 | 244 | 7.8 | 7.8 | 0.00 | 0.00 | 0.00 | 75 | 1014.4 |
| 20260509211751 | 80 | 251 | 7.8 | 8.7 | 0.00 | 0.00 | 0.00 | 75 | 1014.5 |
| 20260509211248 | 81 | 220 | 4.3 | 7.0 | 0.00 | 0.00 | 0.00 | 75 | 1014.4 |
| 20260509210744 | 81 | 219 | 4.3 | 6.1 | 0.00 | 0.00 | 0.00 | 75 | 1014.5 |
| 20260509210242 | 82 | 251 | 6.1 | 9.6 | 0.00 | 0.00 | 0.00 | 75 | 1014.5 |
| 20260509205741 | 84 | 239 | 3.5 | 4.3 | 0.00 | 0.00 | 0.00 | 76 | 1014.6 |
| 20260509205236 | 83 | 249 | 4.3 | 7.8 | 0.00 | 0.00 | 0.00 | 75 | 1014.6 |
| 20260509204732 | 83 | 278 | 0.9 | 1.7 | 0.00 | 0.00 | 0.00 | 75 | 1014.7 |
| 20260509204229 | 80 | 265 | 1.7 | 3.5 | 0.00 | 0.00 | 0.00 | 75 | 1014.9 |
| 20260509203725 | 80 | 265 | 1.7 | 3.5 | 0.00 | 0.00 | 0.00 | 75 | 1014.5 |
| 20260509203223 | 82 | 300 | 4.3 | 5.2 | 0.00 | 0.00 | 0.00 | 75 | 1014.9 |
| 20260509202719 | 81 | 287 | 6.1 | 6.1 | 0.00 | 0.00 | 0.00 | 75 | 1014.9 |
| 20260509202214 | 81 | 283 | 5.2 | 7.0 | 0.00 | 0.00 | 0.00 | 75 | 1014.7 |
| 20260509201709 | 82 | 175 | 1.7 | 3.5 | 0.00 | 0.00 | 0.00 | 75 | 1014.9 |
| 20260509201206 | 82 | 199 | 3.5 | 3.5 | 0.00 | 0.00 | 0.00 | 75 | 1015.0 |
| 20260509200703 | 82 | 199 | 3.5 | 3.5 | 0.00 | 0.00 | 0.00 | 75 | 1015.2 |
| 20260509200157 | 82 | 289 | 2.6 | 3.5 | 0.00 | 0.00 | 0.00 | 75 | 1015.1 |
| 20260509195654 | 82 | 208 | 1.7 | 3.5 | 0.00 | 0.00 | 0.00 | 75 | 1015.1 |
| 20260509195149 | 81 | 206 | 1.7 | 3.5 | 0.00 | 0.00 | 0.00 | 75 | 1015.4 |
| 20260509194643 | 81 | 201 | 2.6 | 3.5 | 0.00 | 0.00 | 0.00 | 75 | 1015.3 |
| 20260509194140 | 80 | 331 | 2.6 | 3.5 | 0.00 | 0.00 | 0.00 | 75 | 1015.2 |
| 20260509193636 | 80 | 304 | 2.6 | 2.6 | 0.00 | 0.00 | 0.00 | 75 | 1015.4 |
| 20260509193132 | 80 | 231 | 3.5 | 5.2 | 0.00 | 0.00 | 0.00 | 75 | 1015.4 |
| 20260509192629 | 79 | 243 | 7.0 | 8.7 | 0.00 | 0.00 | 0.00 | 75 | 1015.6 |
| 20260509192123 | 80 | 238 | 8.7 | 9.6 | 0.00 | 0.00 | 0.00 | 75 | 1015.4 |
| 20260509191618 | 80 | 270 | 2.6 | 7.8 | 0.00 | 0.00 | 0.00 | 75 | 1015.5 |
| 20260509191115 | 79 | 305 | 4.3 | 12.2 | 0.00 | 0.00 | 0.00 | 75 | 1015.5 |
| 20260509190611 | 79 | 260 | 10.4 | 10.4 | 0.00 | 0.00 | 0.00 | 75 | 1015.8 |
| 20260509190109 | 80 | 197 | 1.7 | 7.0 | 0.00 | 0.00 | 0.00 | 75 | 1015.6 |
| 20260509185606 | 80 | 278 | 2.6 | 2.6 | 0.00 | 0.00 | 0.00 | 75 | 1015.6 |
| 20260509185102 | 80 | 334 | 0.9 | 5.2 | 0.00 | 0.00 | 0.00 | 75 | 1015.6 |
| 20260509184601 | 80 | 135 | 2.6 | 2.6 | 0.00 | 0.00 | 0.00 | 75 | 1015.8 |
| 20260509184057 | 79 | 79 | 2.6 | 3.5 | 0.00 | 0.00 | 0.00 | 75 | 1015.6 |
| 20260509183552 | 79 | 270 | 6.1 | 7.8 | 0.00 | 0.00 | 0.00 | 75 | 1015.6 |
| 20260509183048 | 79 | 270 | 6.1 | 7.8 | 0.00 | 0.00 | 0.00 | 75 | 1015.5 |
| 20260509182545 | 79 | 270 | 6.1 | 7.8 | 0.00 | 0.00 | 0.00 | 75 | 1015.3 |
| 20260509182042 | 79 | 270 | 6.1 | 7.8 | 0.00 | 0.00 | 0.00 | 75 | 1015.6 |
| 20260509181540 | 79 | 270 | 6.1 | 7.8 | 0.00 | 0.00 | 0.00 | 75 | 1015.5 |
| 20260509181037 | 79 | 270 | 6.1 | 7.8 | 0.00 | 0.00 | 0.00 | 75 | 1015.5 |
| 20260509180532 | 78 | 288 | 3.5 | 6.1 | 0.00 | 0.00 | 0.00 | 75 | 1015.6 |
| 20260509180030 | 78 | 219 | 7.0 | 9.6 | 0.00 | 0.00 | 0.00 | 75 | 1015.4 |
| 20260509175525 | 78 | 219 | 7.0 | 9.6 | 0.00 | 0.00 | 0.00 | 75 | 1015.5 |
| 20260509175023 | 78 | 219 | 7.0 | 9.6 | 0.00 | 0.00 | 0.00 | 75 | 1015.5 |
| 20260509174519 | 78 | 219 | 7.0 | 9.6 | 0.00 | 0.00 | 0.00 | 75 | 1015.5 |
| 20260509174014 | 79 | 259 | 0.0 | 7.0 | 0.00 | 0.00 | 0.00 | 75 | 1015.5 |
| 20260509173509 | 78 | 251 | 7.0 | 7.8 | 0.00 | 0.00 | 0.00 | 75 | 1015.8 |
| 20260509173005 | 78 | 251 | 7.0 | 7.8 | 0.00 | 0.00 | 0.00 | 75 | 1015.6 |
| 20260509172503 | 78 | 251 | 7.0 | 7.8 | 0.00 | 0.00 | 0.00 | 75 | 1015.7 |
| 20260509171958 | 78 | 250 | 4.3 | 7.0 | 0.00 | 0.00 | 0.00 | 75 | 1016.0 |
| 20260509171454 | 77 | 236 | 7.8 | 9.6 | 0.00 | 0.00 | 0.00 | 75 | 1015.7 |
| 20260509170951 | 78 | 300 | 0.0 | 0.9 | 0.00 | 0.00 | 0.00 | 75 | 1015.7 |
| 20260509170446 | 76 | 262 | 4.3 | 7.8 | 0.00 | 0.00 | 0.00 | 74 | 1015.8 |
| 20260509165942 | 76 | 262 | 7.8 | 9.6 | 0.00 | 0.00 | 0.00 | 75 | 1015.7 |
| 20260509165441 | 76 | 249 | 7.0 | 7.8 | 0.00 | 0.00 | 0.00 | 74 | 1016.0 |
| 20260509164937 | 76 | 254 | 7.8 | 8.7 | 0.00 | 0.00 | 0.00 | 74 | 1015.7 |
| 20260509164433 | 76 | 268 | 6.1 | 9.6 | 0.00 | 0.00 | 0.00 | 74 | 1016.2 |
| 20260509163929 | 76 | 192 | 1.7 | 7.8 | 0.00 | 0.00 | 0.00 | 75 | 1016.0 |
| 20260509163427 | 75 | 268 | 6.1 | 10.4 | 0.00 | 0.00 | 0.00 | 74 | 1015.8 |
| 20260509162926 | 76 | 245 | 3.5 | 4.3 | 0.00 | 0.00 | 0.00 | 74 | 1015.8 |
| 20260509162425 | 76 | 180 | 0.9 | 4.3 | 0.00 | 0.00 | 0.00 | 74 | 1016.1 |
| 20260509161921 | 75 | 249 | 6.1 | 7.8 | 0.00 | 0.00 | 0.00 | 74 | 1016.1 |
| 20260509161417 | 74 | 242 | 4.3 | 5.2 | 0.00 | 0.00 | 0.00 | 74 | 1016.1 |
| 20260509160912 | 74 | 285 | 6.1 | 6.1 | 0.00 | 0.00 | 0.00 | 74 | 1015.8 |
| 20260509160408 | 74 | 248 | 5.2 | 7.8 | 0.00 | 0.00 | 0.00 | 74 | 1015.7 |
| 20260509155903 | 74 | 279 | 7.0 | 7.0 | 0.00 | 0.00 | 0.00 | 74 | 1016.1 |
| 20260509155400 | 74 | 248 | 6.1 | 7.0 | 0.00 | 0.00 | 0.00 | 74 | 1015.8 |
| 20260509154857 | 72 | 259 | 4.3 | 7.8 | 0.00 | 0.00 | 0.00 | 74 | 1016.0 |
| 20260509154353 | 73 | 242 | 7.8 | 8.7 | 0.00 | 0.00 | 0.00 | 74 | 1015.8 |
| 20260509153850 | 73 | 231 | 6.1 | 7.0 | 0.00 | 0.00 | 0.00 | 74 | 1016.0 |
| 20260509153347 | 73 | 291 | 4.3 | 5.2 | 0.00 | 0.00 | 0.00 | 74 | 1015.8 |
| 20260509152844 | 72 | 318 | 2.6 | 2.6 | 0.00 | 0.00 | 0.00 | 74 | 1015.8 |
| 20260509152340 | 72 | 280 | 8.7 | 9.6 | 0.00 | 0.00 | 0.00 | 74 | 1015.8 |
| 20260509151838 | 71 | 295 | 4.3 | 6.1 | 0.00 | 0.00 | 0.00 | 74 | 1016.0 |
| 20260509151333 | 71 | 254 | 4.3 | 5.2 | 0.00 | 0.00 | 0.00 | 74 | 1015.7 |
| 20260509150832 | 71 | 264 | 4.3 | 4.3 | 0.00 | 0.00 | 0.00 | 74 | 1015.8 |
| 20260509150329 | 71 | 255 | 4.3 | 6.1 | 0.00 | 0.00 | 0.00 | 74 | 1015.6 |
| 20260509145827 | 70 | 298 | 2.6 | 4.3 | 0.00 | 0.00 | 0.00 | 74 | 1016.0 |
| 20260509145321 | 70 | 306 | 2.6 | 5.2 | 0.00 | 0.00 | 0.00 | 74 | 1016.1 |
| 20260509144818 | 70 | 303 | 2.6 | 4.3 | 0.00 | 0.00 | 0.00 | 74 | 1016.0 |
| 20260509144315 | 69 | 281 | 2.6 | 4.3 | 0.00 | 0.00 | 0.00 | 74 | 1015.8 |
| 20260509143812 | 69 | 282 | 2.6 | 3.5 | 0.00 | 0.00 | 0.00 | 74 | 1016.0 |
| 20260509143309 | 69 | 265 | 3.5 | 4.3 | 0.00 | 0.00 | 0.00 | 74 | 1015.8 |
| 20260509142805 | 68 | 267 | 5.2 | 7.0 | 0.00 | 0.00 | 0.00 | 73 | 1015.5 |
| 20260509142302 | 68 | 300 | 2.6 | 4.3 | 0.00 | 0.00 | 0.00 | 73 | 1015.8 |
| 20260509141757 | 67 | 270 | 7.0 | 7.8 | 0.00 | 0.00 | 0.00 | 73 | 1015.7 |
| 20260509141254 | 67 | 274 | 4.3 | 7.0 | 0.00 | 0.00 | 0.00 | 73 | 1015.7 |
| 20260509140751 | 67 | 261 | 3.5 | 7.0 | 0.00 | 0.00 | 0.00 | 73 | 1015.4 |
| 20260509140248 | 66 | 256 | 4.3 | 7.8 | 0.00 | 0.00 | 0.00 | 73 | 1015.5 |
| 20260509135746 | 66 | 281 | 5.2 | 7.0 | 0.00 | 0.00 | 0.00 | 73 | 1015.5 |
| 20260509135243 | 65 | 275 | 1.7 | 6.1 | 0.00 | 0.00 | 0.00 | 73 | 1015.4 |
| 20260509134740 | 64 | 283 | 3.5 | 3.5 | 0.00 | 0.00 | 0.00 | 73 | 1015.2 |
| 20260509134238 | 64 | 250 | 7.0 | 7.8 | 0.00 | 0.00 | 0.00 | 73 | 1015.5 |
| 20260509133735 | 64 | 250 | 7.0 | 7.8 | 0.00 | 0.00 | 0.00 | 73 | 1015.4 |
| 20260509133231 | 63 | 276 | 5.2 | 7.0 | 0.00 | 0.00 | 0.00 | 73 | 1015.5 |
| 20260509132730 | 63 | 276 | 5.2 | 7.0 | 0.00 | 0.00 | 0.00 | 73 | 1015.4 |
| 20260509132228 | 63 | 266 | 6.1 | 7.8 | 0.00 | 0.00 | 0.00 | 73 | 1015.4 |
| 20260509131725 | 63 | 325 | 6.1 | 7.8 | 0.00 | 0.00 | 0.00 | 73 | 1015.2 |
| 20260509131221 | 63 | 272 | 7.0 | 7.0 | 0.00 | 0.00 | 0.00 | 73 | 1015.2 |
| 20260509130717 | 61 | 259 | 3.5 | 3.5 | 0.00 | 0.00 | 0.00 | 73 | 1015.2 |
| 20260509130213 | 61 | 259 | 3.5 | 3.5 | 0.00 | 0.00 | 0.00 | 73 | 1015.0 |
| 20260509125710 | 61 | 259 | 3.5 | 3.5 | 0.00 | 0.00 | 0.00 | 73 | 1015.0 |
| 20260509125207 | 60 | 266 | 3.5 | 4.3 | 0.00 | 0.00 | 0.00 | 73 | 1015.3 |
| 20260509124703 | 59 | 270 | 4.3 | 6.1 | 0.00 | 0.00 | 0.00 | 73 | 1015.0 |
| 20260509124200 | 59 | 270 | 4.3 | 6.1 | 0.00 | 0.00 | 0.00 | 73 | 1015.0 |
| 20260509123659 | 0 | 0.0 | 0.0 | 0.00 | 0.00 | 0.00 | 1014.9 | ||
| 20260509123155 | 0 | 0.0 | 0.0 | 0.00 | 0.00 | 0.00 | 1015.1 | ||
| 20260509122650 | 0 | 0.0 | 0.0 | 0.00 | 0.00 | 0.00 | 1015.0 | ||
| 20260509122148 | 0 | 0.0 | 0.0 | 0.00 | 0.00 | 0.00 | 1014.9 | ||
| 20260509121644 | 0 | 0.0 | 0.0 | 0.00 | 0.00 | 0.00 | 1014.9 | ||
| 20260509121142 | 0 | 0.0 | 0.0 | 0.00 | 0.00 | 0.00 | 1015.0 | ||
| 20260509120640 | 0 | 0.0 | 0.0 | 0.00 | 0.00 | 0.00 | 1015.0 | ||
| 20260509120138 | 0 | 0.0 | 0.0 | 0.00 | 0.00 | 0.00 | 1014.9 | ||
| 20260509115635 | 0 | 0.0 | 0.0 | 0.00 | 0.00 | 0.00 | 1014.8 | ||
| 20260509115133 | 0 | 0.0 | 0.0 | 0.00 | 0.00 | 0.00 | 1014.5 | ||
| 20260509114630 | 0 | 0.0 | 0.0 | 0.00 | 0.00 | 0.00 | 1014.5 | ||
| 20260509114129 | 0 | 0.0 | 0.0 | 0.00 | 0.00 | 0.00 | 1014.5 | ||
| 20260509113627 | 0 | 0.0 | 0.0 | 0.00 | 0.00 | 0.00 | 1014.1 | ||
| 20260509113124 | 0 | 0.0 | 0.0 | 0.00 | 0.00 | 0.00 | 1014.3 | ||
| 20260509112620 | 0 | 0.0 | 0.0 | 0.00 | 0.00 | 0.00 | 1014.2 | ||
| 20260509112118 | 0 | 0.0 | 0.0 | 0.00 | 0.00 | 0.00 | 1014.3 | ||
| 20260509111615 | 0 | 0.0 | 0.0 | 0.00 | 0.00 | 0.00 | 1014.4 | ||
| 20260509111111 | 0 | 0.0 | 0.0 | 0.00 | 0.00 | 0.00 | 1014.1 | ||
| 20260509110609 | 0 | 0.0 | 0.0 | 0.00 | 0.00 | 0.00 | 1014.2 | ||
| 20260509110106 | 0 | 0.0 | 0.0 | 0.00 | 0.00 | 0.00 | 1014.1 | ||
| 20260509105604 | 0 | 0.0 | 0.0 | 0.00 | 0.00 | 0.00 | 1014.1 | ||
| 20260509105101 | 0 | 0.0 | 0.0 | 0.00 | 0.00 | 0.00 | 1013.9 | ||
| 20260509104558 | 0 | 0.0 | 0.0 | 0.00 | 0.00 | 0.00 | 1013.9 | ||
| 20260509104055 | 0 | 0.0 | 0.0 | 0.00 | 0.00 | 0.00 | 1014.2 | ||
| 20260509103553 | 0 | 0.0 | 0.0 | 0.00 | 0.00 | 0.00 | 1013.9 | ||
| 20260509103051 | 0 | 0.0 | 0.0 | 0.00 | 0.00 | 0.00 | 1013.9 | ||
| 20260509102548 | 0 | 0.0 | 0.0 | 0.00 | 0.00 | 0.00 | 1013.9 | ||
| 20260509102045 | 0 | 0.0 | 0.0 | 0.00 | 0.00 | 0.00 | 1013.9 | ||
| 20260509101540 | 0 | 0.0 | 0.0 | 0.00 | 0.00 | 0.00 | 1014.0 | ||
| 20260509101037 | 0 | 0.0 | 0.0 | 0.00 | 0.00 | 0.00 | 1013.9 | ||
| 20260509100535 | 0 | 0.0 | 0.0 | 0.00 | 0.00 | 0.00 | 1014.2 | ||
| 20260509100033 | 0 | 0.0 | 0.0 | 0.00 | 0.00 | 0.00 | 1013.9 | ||
| 20260509095529 | 0 | 0.0 | 0.0 | 0.00 | 0.00 | 0.00 | 1014.1 | ||
| 20260509095026 | 0 | 0.0 | 0.0 | 0.00 | 0.00 | 0.00 | 1014.2 | ||
| 20260509094522 | 0 | 0.0 | 0.0 | 0.00 | 0.00 | 0.00 | 1014.2 | ||
| 20260509094020 | 0 | 0.0 | 0.0 | 0.00 | 0.00 | 0.00 | 1014.1 | ||
| 20260509093518 | 0 | 0.0 | 0.0 | 0.00 | 0.00 | 0.00 | 1014.1 | ||
| 20260509093015 | 0 | 0.0 | 0.0 | 0.00 | 0.00 | 0.00 | 1014.2 | ||
| 20260509092513 | 0 | 0.0 | 0.0 | 0.00 | 0.00 | 0.00 | 1014.1 | ||
| 20260509092012 | 0 | 0.0 | 0.0 | 0.00 | 0.00 | 0.00 | 1014.2 | ||
| 20260509091508 | 0 | 0.0 | 0.0 | 0.00 | 0.00 | 0.00 | 1014.3 | ||
| 20260509091005 | 0 | 0.0 | 0.0 | 0.00 | 0.00 | 0.00 | 1014.4 | ||
| 20260509090502 | 0 | 0.0 | 0.0 | 0.00 | 0.00 | 0.00 | 1014.5 | ||
| 20260509090000 | 0 | 0.0 | 0.0 | 0.00 | 0.00 | 0.00 | 1014.2 | ||
| 20260509085457 | 0 | 0.0 | 0.0 | 0.00 | 0.00 | 0.00 | 1014.2 | ||
| 20260509084953 | 0 | 0.0 | 0.0 | 0.00 | 0.00 | 0.00 | 1014.3 | ||
| 20260509084449 | 0 | 0.0 | 0.0 | 0.00 | 0.00 | 0.00 | 1014.0 | ||
| 20260509083946 | 0 | 0.0 | 0.0 | 0.00 | 0.00 | 0.00 | 1014.3 | ||
| 20260509083444 | 0 | 0.0 | 0.0 | 0.00 | 0.00 | 0.00 | 1014.3 | ||
| 20260509082941 | 0 | 0.0 | 0.0 | 0.00 | 0.00 | 0.00 | 1014.1 | ||
| 20260509082438 | 0 | 0.0 | 0.0 | 0.00 | 0.00 | 0.00 | 1014.2 | ||
| 20260509081935 | 0 | 0.0 | 0.0 | 0.00 | 0.00 | 0.00 | 1013.9 | ||
| 20260509081432 | 0 | 0.0 | 0.0 | 0.00 | 0.00 | 0.00 | 1013.8 | ||
| 20260509080930 | 0 | 0.0 | 0.0 | 0.00 | 0.00 | 0.00 | 1013.9 | ||
| 20260509080427 | 0 | 0.0 | 0.0 | 0.00 | 0.00 | 0.00 | 1013.9 | ||
| 20260509075925 | 0 | 0.0 | 0.0 | 0.00 | 0.00 | 0.00 | 1013.9 | ||
| 20260509075422 | 0 | 0.0 | 0.0 | 0.00 | 0.00 | 0.00 | 1013.9 | ||
| 20260509074920 | 0 | 0.0 | 0.0 | 0.00 | 0.00 | 0.00 | 1013.8 | ||
| 20260509074417 | 0 | 0.0 | 0.0 | 0.00 | 0.00 | 0.00 | 1013.9 | ||
| 20260509073913 | 0 | 0.0 | 0.0 | 0.00 | 0.00 | 0.00 | 1013.9 | ||
| 20260509073410 | 0 | 0.0 | 0.0 | 0.00 | 0.00 | 0.00 | 1013.9 | ||
| 20260509072906 | 0 | 0.0 | 0.0 | 0.00 | 0.00 | 0.00 | 1014.0 | ||
| 20260509072403 | 0 | 0.0 | 0.0 | 0.00 | 0.00 | 0.00 | 1014.1 | ||
| 20260509071859 | 0 | 0.0 | 0.0 | 0.00 | 0.00 | 0.00 | 1013.9 | ||
| 20260509071357 | 0 | 0.0 | 0.0 | 0.00 | 0.00 | 0.00 | 1013.9 | ||
| 20260509070854 | 0 | 0.0 | 0.0 | 0.00 | 0.00 | 0.00 | 1013.9 | ||
| 20260509070351 | 0 | 0.0 | 0.0 | 0.00 | 0.00 | 0.00 | 1014.0 | ||
| 20260509065846 | 0 | 0.0 | 0.0 | 0.00 | 0.00 | 0.00 | 1014.0 | ||
| 20260509065343 | 0 | 0.0 | 0.0 | 0.00 | 0.00 | 0.00 | 1013.8 | ||
| 20260509064839 | 0 | 0.0 | 0.0 | 0.00 | 0.00 | 0.00 | 1013.9 | ||
| 20260509064337 | 0 | 0.0 | 0.0 | 0.00 | 0.00 | 0.00 | 1013.7 |